Amarillo, TX

10:55 AM CDT on September 22, 2017 (GMT -0500)
Amarillo International

Weather History for KAMA - June, 2013

Change the Weather History Date:

Tuesday, June 25, 2013

  Actual Average Record
Temperature  
Mean Temperature 88 °F 77 °F  
Max Temperature 103 °F 90 °F 107 °F (1914)
Min Temperature 72 °F 63 °F 52 °F (1958)
Degree Days  
Heating Degree Days 0 0  
Month to date heating degree days 0 5  
Since 1 June heating degree days 0 5  
Since 1 July heating degree days 3736 4176  
Cooling Degree Days 23 12  
Month to date cooling degree days 302 227  
Year to date cooling degree days 550 352  
Since 1 June cooling degree days 302 227  
Growing Degree Days 37 (Base 50)    
Moisture  
Dew Point 44 °F    
Average Humidity 37    
Maximum Humidity 68    
Minimum Humidity 6    
Precipitation  
Precipitation 0.00 in 0.09 in 1.88 in (1965)
Month to date precipitation 2.54 2.70  
Year to date precipitation 8.83 9.06  
Snow  
Snow 0.00 in 0.00 in 0.00 in ()
Month to date snowfall 0.0 0.0  
Since 1 June snowfall 0.0 0.0  
Since 1 July snowfall 29.7 17.8  
Snow Depth 0.00 in    
Sea Level Pressure  
Sea Level Pressure 29.71 in    
Wind  
Wind Speed 18 mph (SW)    
Max Wind Speed 29 mph    
Max Gust Speed 36 mph    
Visibility 10 miles    
Events      
T = Trace of Precipitation, MM = Missing Value Source: NWS Daily Summary

Daily Weather History Graph

Daily Weather History Graph

Search for Another Location

Airport or City:

Trip Planner

Search our weather history database for the weather conditions in past years. The results will help you decide how hot, cold, wet, or windy it might be!

Date:

Astronomy

Jun. 25, 2013 Rise Set
Actual Time 6:33 AM CDT 9:05 PM CDT
Civil Twilight 6:03 AM CDT 9:35 PM CDT
Nautical Twilight 5:27 AM CDT 10:12 PM CDT
Astronomical Twilight 4:46 AM CDT 10:52 PM CDT
Moon 10:59 PM CDT (6/25) 9:10 AM CDT (6/25)
Length of Visible Light 15h 31m
Length of Day
14h 31m
Waning Gibbous, 92% of the Moon is Illuminated
Jun 25
Waning Gibbous
Jun 29
Last Quarter
Jul 8
New
Jul 15
First Quarter
Jul 22
Full

Hourly Weather History & Observations

Time (CDT) Temp. Heat Index Dew Point Humidity Pressure Visibility Wind Dir Wind Speed Gust Speed Precip Events Conditions
12:53 AM 80.1 °F 80.7 °F 59.0 °F 48% 29.74 in 10.0 mi South 23.0 mph 31.1 mph N/A   Clear
1:53 AM 78.1 °F - 59.0 °F 52% 29.73 in 10.0 mi South 21.9 mph 29.9 mph N/A   Clear
2:53 AM 75.9 °F - 60.1 °F 58% 29.72 in 10.0 mi South 19.6 mph - N/A   Clear
3:53 AM 75.0 °F - 60.1 °F 60% 29.72 in 10.0 mi South 23.0 mph 32.2 mph N/A   Clear
4:53 AM 73.9 °F - 60.1 °F 62% 29.71 in 10.0 mi SSW 23.0 mph 29.9 mph N/A   Clear
5:53 AM 73.0 °F - 61.0 °F 66% 29.73 in 10.0 mi SSW 19.6 mph 26.5 mph N/A   Clear
6:53 AM 72.0 °F - 61.0 °F 68% 29.74 in 10.0 mi South 21.9 mph 27.6 mph N/A   Clear
7:53 AM 73.0 °F - 61.0 °F 66% 29.75 in 10.0 mi SSW 23.0 mph 27.6 mph N/A   Clear
8:53 AM 77.0 °F - 62.1 °F 60% 29.76 in 10.0 mi SW 20.7 mph 29.9 mph N/A   Clear
9:53 AM 79.0 °F - 62.1 °F 56% 29.76 in 10.0 mi WSW 15.0 mph - N/A   Clear
10:53 AM 84.9 °F 84.2 °F 57.9 °F 40% 29.75 in 10.0 mi WSW 12.7 mph - N/A   Clear
11:53 AM 91.9 °F - 51.1 °F 25% 29.74 in 10.0 mi SW 15.0 mph - N/A   Clear
12:53 PM 98.1 °F - 30.9 °F 9% 29.73 in 10.0 mi WSW 13.8 mph 25.3 mph N/A   Clear
1:53 PM 100.0 °F - 30.0 °F 9% 29.72 in 10.0 mi WSW 19.6 mph 27.6 mph N/A   Clear
2:53 PM 100.9 °F - 30.9 °F 9% 29.70 in 10.0 mi West 20.7 mph 28.8 mph N/A   Clear
3:53 PM 102.0 °F - 30.0 °F 8% 29.68 in 10.0 mi WSW 17.3 mph 33.4 mph N/A   Clear
4:53 PM 102.0 °F - 26.1 °F 7% 29.66 in 10.0 mi West 20.7 mph 32.2 mph N/A   Clear
5:53 PM 102.0 °F - 21.0 °F 6% 29.65 in 10.0 mi West 21.9 mph 32.2 mph N/A   Clear
6:53 PM 100.9 °F - 21.9 °F 6% 29.64 in 10.0 mi WSW 20.7 mph 24.2 mph N/A   Clear
7:53 PM 97.0 °F - 19.0 °F 6% 29.65 in 10.0 mi WSW 19.6 mph 27.6 mph N/A   Clear
8:53 PM 88.0 °F - 23.0 °F 9% 29.66 in 10.0 mi SW 9.2 mph - N/A   Clear
9:53 PM 80.1 °F - 35.1 °F 20% 29.68 in 10.0 mi SSW 10.4 mph - N/A   Clear
10:53 PM 79.0 °F - 37.9 °F 23% 29.69 in 10.0 mi SSW 11.5 mph - N/A   Clear
11:53 PM 77.0 °F - 42.1 °F 29% 29.70 in 10.0 mi South 12.7 mph - N/A   Clear